Regional Weather Roundup
Issued by NWS

Home | Current Version | Previous Version | Text Only | Print | Product List | Glossary Off
Versions: 1 2 3 4 5 6 7 8 9 10 11 12 13 14 15 16 17 18 19 20 21 22 23 24 25 26 27 28 29 30 31 32 33 34 35 36 37 38 39 40 41 42 43 44 45 46 47 48 49 50

000
ASUS43 KIND 021109
RWRIN

WEATHER ROUNDUP FOR INDIANA
NATIONAL WEATHER SERVICE INDIANAPOLIS IN
700 AM EDT MON MAY 02 2016

NOTE: "FAIR" INDICATES FEW OR NO CLOUDS BELOW 12,000 FEET WITH NO
SIGNIFICANT WEATHER AND/OR OBSTRUCTIONS TO VISIBILITY.

* - STATION DOES NOT REPORT WEATHER SUCH AS PRECIPITATION OR FOG.

+ - STATION NOT QUALITY CONTROLLED BY THE NATIONAL WEATHER SERVICE.
    USE DATA WITH CAUTION...ESPECIALLY DEWPOINT AND RELATIVE
    HUMIDITY OBSERVATIONS.

INZ001>003-010>013-019-020-021200-
NORTHWEST INDIANA

CITY           SKY/WX    TMP DP  RH WIND       PRES   REMARKS
GARY /AIRPORT/ CLOUDY    46  46 100 NE12G23   30.03S
KNOX *+        CLOUDY    45  43  93 N9        29.99R
LA PORTE +     CLOUDY    46  46 100 N10       30.00R
MICHIGAN CITY+ CLOUDY    45  45 100 N8        30.01S
MONTICELLO +   CLOUDY    48  45  88 N10       29.97R
RENSSELAER +   CLOUDY    46  46 100 N8        29.99R
VALPARAISO     CLOUDY    44  43  96 N9        30.00R

$$

LMZ046-743>745-021200-
SOUTHERN LAKE MICHIGAN

STATION/POSITION TIME  TEMP    WIND        PRES    WAVE
                       AIR SEA DIR/SP/G            HT
                 (UTC) (F)     (DEG/KT/KT) (MB)    (FT)
BURNS HARBOR     1022   45      30/ 19/ 23 1016.6R
MICHIGAN CITY    1000   43     360/ 21/ 22   N/A

$$

INZ004-005-014>016-021>024-021200-
NORTH CENTRAL INDIANA

CITY           SKY/WX    TMP DP  RH WIND       PRES   REMARKS
ELKHART        CLOUDY    45  45 100 N6        30.00
GOSHEN         CLOUDY    45  43  93 N9        29.99R
LOGANSPORT +   CLOUDY    50  50 100 N8        29.97R FOG
PERU/GRISSOM   CLOUDY    51  51 100 NE5       29.94S
ROCHESTER +    CLOUDY    48  48 100 NE7       29.98R FOG
SOUTH BEND     CLOUDY    44  42  93 N9        30.00R
WARSAW +       LGT RAIN  45  45 100 NE6       29.97S

$$

INZ006>009-017-018-025>027-021200-
NORTHEAST INDIANA

CITY           SKY/WX    TMP DP  RH WIND       PRES   REMARKS
ANGOLA *+      CLOUDY    45  34  65 N6        29.98R
AUBURN +       CLOUDY    46  45  93 N7        29.98R FOG
FORT WAYNE     DRIZZLE   49  47  93 NE5       29.98R FOG
HUNTINGTON +   CLOUDY   N/A N/A N/A N6        29.97R FOG

$$

INZ028-029-035-036-043>045-051>053-021200-
WEST CENTRAL INDIANA

CITY           SKY/WX    TMP DP  RH WIND       PRES   REMARKS
CRAWFORDSVL +  CLOUDY    47  47 100 W12       29.98R FOG
GREENCASTLE +  CLOUDY    50  50 100 W7        29.99R
LAFAYETTE      CLOUDY    50  49  96 NW7       29.98R FOG
TERRE HAUTE    CLOUDY    53  46  77 W8        30.00R

$$

INZ030>032-037>040-046>048-054>057-064-065-021200-
CENTRAL INDIANA

CITY           SKY/WX    TMP DP  RH WIND       PRES   REMARKS
CP ATTERBURY + CLOUDY    55  52  88 W7        29.96R
COLUMBUS       CLEAR     55  55 100 W7        29.94
FISHERS *+     CLOUDY    52  52 100 W7        29.95R
FRANKFORT +    FOG       51  51 100 NW9       29.98R VSB 3/4
GREENWOOD *+   CLOUDY    54  52  94 W5        29.96R
INDIANAPOLIS   CLOUDY    53  50  89 NW10      29.94R
-EAGLE CREEK   CLOUDY    54  51  90 NW9       29.95R
KOKOMO *+      CLOUDY    52  48  87 NE8       29.95R
MARION +       CLOUDY    51  50  97 NE7       29.96R FOG
SHELBYVILLE    CLOUDY    58  53  84 W8        29.94R
ZIONSVILLE +   CLOUDY    50  50  99 W8        29.96R FOG

$$

INZ033-034-041-042-049-050-058-059-021200-
EAST CENTRAL INDIANA

CITY           SKY/WX    TMP DP  RH WIND       PRES   REMARKS
MUNCIE         CLOUDY    53  51  93 N8        29.95R FOG

$$

INZ060-061-067>069-081>083-085>088-021200-
SOUTHWEST INDIANA

CITY           SKY/WX    TMP DP  RH WIND       PRES   REMARKS
EVANSVILLE     PTCLDY    54  51  90 NW5       30.02S
HUNTINGBURG *+ CLOUDY    55  52  88 NW7       30.01S
WASHINGTON +   CLOUDY    53  52  95 W6        30.01R

$$

INZ062-063-066-070>080-084-089>092-021200-
SOUTH CENTRAL AND SOUTHEAST INDIANA

CITY           SKY/WX    TMP DP  RH WIND       PRES   REMARKS
BEDFORD +      CLOUDY    54  54 100 W6G18     29.99R
BLOOMINGTON    CLOUDY    53  48  83 W7        29.99R
MADISON *+     CLOUDY    57  55  94 W7        29.99R
NORTH VERNON + CLOUDY   N/A N/A N/A CALM      29.96R HAZE
SEYMOUR +      CLOUDY    57  55  94 CALM      29.97R

$$




USA.gov is the U.S. government's official web portal to all federal, state and local government web resources and services.